Location: Arrodets-la-Barthe
(43.0306°N, 0.2829°E)
Time: 11:17:53
(UTC+00:00)

Lacrosse 4 Rocket - Pass Details

Date: 01 June 2022
Orbit: 541 x 611 km, 68.0° (Epoch: 03 July)

Event Time Altitude Azimuth Distance (km) Brightness Sun altitude
Exits shadow 01:50:44 18° 138° (SE) 1,426 3.2 -19.8°
Maximum altitude 01:52:15 22° 109° (ESE) 1,269 3.2 -19.7°
Drops below altitude 10° 01:55:32 10° 57° (ENE) 1,875 4.9 -19.4°
Sets 01:58:05 0° 43° (NE) 2,764 6.4 -19.2°
